WZZ3AR LZKZ-LZIB

Flight info

Callsign WZZ3AR
Flight time 0h 38m
Altitude 24000
Route TAKOS A42 NIT
Aircraft A321/M-SDE1E2E3FGIJ1J4RWXY/LB1

Departure

Time 2026-04-21 16:34
Airport Košice International Airport (LZKZ)

Arrival

Time 2026-04-21 17:12
Airport M. R. Štefánik Airport (LZIB)
Time Latitude Longitude Altitude Speed Heading
2026-04-21 16:12 48.67258 21.23869 756 ft 0 kts 11°
2026-04-21 16:25 48.67262 21.23870 756 ft 2 kts 11°
2026-04-21 16:26 48.67283 21.23881 756 ft 4 kts 28°
2026-04-21 16:26 48.67303 21.23932 755 ft 7 kts 89°
2026-04-21 16:26 48.67289 21.24029 754 ft 10 kts 103°
2026-04-21 16:26 48.67272 21.24142 754 ft 11 kts 102°
2026-04-21 16:27 48.67253 21.24275 752 ft 14 kts 102°
2026-04-21 16:27 48.67228 21.24423 752 ft 14 kts 104°
2026-04-21 16:27 48.67201 21.24584 749 ft 17 kts 103°
2026-04-21 16:27 48.67173 21.24730 747 ft 9 kts 127°
2026-04-21 16:28 48.67112 21.24749 747 ft 10 kts 193°
2026-04-21 16:28 48.67037 21.24723 747 ft 12 kts 193°
2026-04-21 16:28 48.66942 21.24689 746 ft 16 kts 193°
2026-04-21 16:28 48.66822 21.24646 744 ft 18 kts 193°
2026-04-21 16:29 48.66698 21.24603 744 ft 18 kts 193°
2026-04-21 16:29 48.66571 21.24560 744 ft 18 kts 192°
2026-04-21 16:29 48.66442 21.24514 743 ft 19 kts 193°
2026-04-21 16:29 48.66305 21.24465 741 ft 20 kts 193°
2026-04-21 16:30 48.66178 21.24421 741 ft 17 kts 193°
2026-04-21 16:30 48.66056 21.24378 741 ft 18 kts 192°
2026-04-21 16:30 48.65932 21.24333 741 ft 18 kts 193°
2026-04-21 16:30 48.65808 21.24292 740 ft 19 kts 192°
2026-04-21 16:31 48.65671 21.24245 737 ft 20 kts 193°
2026-04-21 16:31 48.65535 21.24196 737 ft 20 kts 193°
2026-04-21 16:31 48.65394 21.24146 735 ft 20 kts 192°
2026-04-21 16:31 48.65263 21.24100 734 ft 19 kts 193°
2026-04-21 16:32 48.65131 21.24054 734 ft 17 kts 193°
2026-04-21 16:32 48.65024 21.24017 734 ft 15 kts 192°
2026-04-21 16:32 48.64933 21.23965 733 ft 14 kts 220°
2026-04-21 16:32 48.64896 21.23850 734 ft 10 kts 268°
2026-04-21 16:33 48.64916 21.23745 734 ft 10 kts 303°
2026-04-21 16:33 48.64978 21.23674 734 ft 11 kts 339°
2026-04-21 16:33 48.65083 21.23681 736 ft 28 kts 13°
2026-04-21 16:33 48.65512 21.23837 738 ft 99 kts 13°
2026-04-21 16:34 48.66394 21.24140 792 ft 152 kts 11°
2026-04-21 16:34 48.67421 21.24493 1393 ft 155 kts 12°
2026-04-21 16:34 48.68457 21.24859 2099 ft 157 kts 13°
2026-04-21 16:34 48.69488 21.25232 2839 ft 150 kts 14°
2026-04-21 16:35 48.70496 21.25563 3347 ft 152 kts 13°
2026-04-21 16:35 48.71549 21.25892 3793 ft 158 kts 13°
2026-04-21 16:35 48.72654 21.26258 4156 ft 170 kts 14°
2026-04-21 16:35 48.73832 21.26676 4583 ft 180 kts 14°
2026-04-21 16:36 48.75097 21.27135 4940 ft 196 kts 13°
2026-04-21 16:36 48.76501 21.27155 5317 ft 216 kts 345°
2026-04-21 16:36 48.77750 21.25845 5904 ft 233 kts 312°
2026-04-21 16:36 48.78487 21.23519 6379 ft 256 kts 288°
2026-04-21 16:37 48.78841 21.20853 6978 ft 267 kts 284°
2026-04-21 16:37 48.79185 21.18030 7576 ft 277 kts 285°
2026-04-21 16:37 48.79575 21.15176 8327 ft 281 kts 286°
2026-04-21 16:37 48.79993 21.12287 9162 ft 283 kts 285°
2026-04-21 16:38 48.80118 21.09282 9945 ft 291 kts 267°
2026-04-21 16:38 48.79625 21.06302 10668 ft 300 kts 252°
2026-04-21 16:38 48.78847 21.03297 11130 ft 315 kts 250°
2026-04-21 16:38 48.78001 21.00210 11786 ft 320 kts 250°
2026-04-21 16:39 48.77155 20.97115 12522 ft 323 kts 250°
2026-04-21 16:39 48.76302 20.93954 13247 ft 325 kts 250°
2026-04-21 16:39 48.75460 20.90807 13935 ft 328 kts 250°
2026-04-21 16:39 48.74607 20.87596 14631 ft 331 kts 250°
2026-04-21 16:40 48.73751 20.84372 15289 ft 334 kts 250°
2026-04-21 16:40 48.72887 20.81119 15950 ft 337 kts 250°
2026-04-21 16:40 48.72014 20.77831 16614 ft 339 kts 250°
2026-04-21 16:40 48.71127 20.74493 17253 ft 342 kts 250°
2026-04-21 16:41 48.70241 20.71159 17874 ft 345 kts 250°
2026-04-21 16:41 48.69346 20.67800 18482 ft 348 kts 250°
2026-04-21 16:41 48.68451 20.64448 19064 ft 350 kts 250°
2026-04-21 16:41 48.67533 20.61017 19653 ft 353 kts 250°
2026-04-21 16:42 48.66609 20.57567 20230 ft 356 kts 250°
2026-04-21 16:42 48.65678 20.54101 20797 ft 359 kts 250°
2026-04-21 16:42 48.64744 20.50624 21362 ft 361 kts 250°
2026-04-21 16:42 48.63796 20.47101 21924 ft 364 kts 250°
2026-04-21 16:43 48.62849 20.43588 22469 ft 366 kts 250°
2026-04-21 16:43 48.61882 20.40010 23012 ft 369 kts 250°
2026-04-21 16:43 48.60909 20.36414 23556 ft 371 kts 250°
2026-04-21 16:43 48.59933 20.32807 23986 ft 373 kts 249°
2026-04-21 16:44 48.58998 20.29202 24066 ft 373 kts 252°
2026-04-21 16:44 48.58246 20.25470 24066 ft 371 kts 257°
2026-04-21 16:44 48.57712 20.21680 24068 ft 370 kts 262°
2026-04-21 16:44 48.57290 20.17843 24070 ft 370 kts 263°
2026-04-21 16:45 48.56881 20.14005 24070 ft 370 kts 263°
2026-04-21 16:45 48.56473 20.10168 24071 ft 371 kts 263°
2026-04-21 16:45 48.56065 20.06370 24072 ft 371 kts 262°
2026-04-21 16:45 48.55646 20.02509 24071 ft 371 kts 262°
2026-04-21 16:46 48.55232 19.98709 24073 ft 371 kts 262°
2026-04-21 16:46 48.54810 19.94858 24074 ft 371 kts 262°
2026-04-21 16:46 48.54390 19.91046 24073 ft 371 kts 262°
2026-04-21 16:46 48.53965 19.87215 24073 ft 370 kts 262°
2026-04-21 16:47 48.53541 19.83393 24070 ft 370 kts 262°
2026-04-21 16:47 48.53117 19.79584 24067 ft 370 kts 262°
2026-04-21 16:47 48.52694 19.75794 24065 ft 370 kts 262°
2026-04-21 16:47 48.52267 19.71980 24065 ft 370 kts 262°
2026-04-21 16:48 48.51837 19.68164 24070 ft 371 kts 262°
2026-04-21 16:48 48.51403 19.64322 24073 ft 371 kts 262°
2026-04-21 16:48 48.50969 19.60488 24074 ft 371 kts 262°
2026-04-21 16:48 48.50541 19.56710 24073 ft 370 kts 262°
2026-04-21 16:49 48.50106 19.52863 24069 ft 370 kts 262°
2026-04-21 16:49 48.49675 19.49062 24071 ft 369 kts 262°
2026-04-21 16:49 48.49242 19.45254 24075 ft 370 kts 262°
2026-04-21 16:49 48.48809 19.41468 24075 ft 370 kts 262°
2026-04-21 16:50 48.48375 19.37690 24071 ft 370 kts 262°
2026-04-21 16:50 48.47931 19.33843 24068 ft 369 kts 262°
2026-04-21 16:50 48.47496 19.30082 24068 ft 370 kts 262°
2026-04-21 16:50 48.47054 19.26273 24062 ft 370 kts 262°
2026-04-21 16:51 48.46610 19.22463 24057 ft 370 kts 262°
2026-04-21 16:51 48.46163 19.18639 24059 ft 369 kts 262°
2026-04-21 16:51 48.45720 19.14844 24060 ft 370 kts 262°
2026-04-21 16:51 48.45254 19.11041 24065 ft 370 kts 260°
2026-04-21 16:52 48.44713 19.07307 24069 ft 371 kts 259°
2026-04-21 16:52 48.44150 19.03507 24069 ft 371 kts 259°
2026-04-21 16:52 48.43589 18.99742 24071 ft 370 kts 259°
2026-04-21 16:52 48.43025 18.95962 24073 ft 370 kts 259°
2026-04-21 16:53 48.42459 18.92182 24006 ft 371 kts 259°
2026-04-21 16:53 48.41894 18.88414 23401 ft 374 kts 259°
2026-04-21 16:53 48.41321 18.84602 22835 ft 372 kts 259°
2026-04-21 16:53 48.40758 18.80867 22354 ft 369 kts 259°
2026-04-21 16:54 48.40188 18.77094 21888 ft 365 kts 259°
2026-04-21 16:54 48.39637 18.73458 21449 ft 361 kts 259°
2026-04-21 16:54 48.39085 18.69816 21008 ft 357 kts 259°
2026-04-21 16:54 48.38532 18.66183 20574 ft 353 kts 259°
2026-04-21 16:55 48.37989 18.62620 20137 ft 350 kts 259°
2026-04-21 16:55 48.37450 18.59098 19708 ft 347 kts 259°
2026-04-21 16:55 48.36911 18.55579 19279 ft 345 kts 259°
2026-04-21 16:55 48.36374 18.52078 18852 ft 342 kts 259°
2026-04-21 16:56 48.35847 18.48637 18431 ft 340 kts 259°
2026-04-21 16:56 48.35322 18.45209 18012 ft 337 kts 259°
2026-04-21 16:56 48.34797 18.41787 17597 ft 335 kts 259°
2026-04-21 16:56 48.34273 18.38393 17178 ft 333 kts 259°
2026-04-21 16:57 48.33752 18.35014 16771 ft 331 kts 259°
2026-04-21 16:57 48.33234 18.31671 16360 ft 329 kts 258°
2026-04-21 16:57 48.32719 18.28357 15944 ft 327 kts 258°
2026-04-21 16:57 48.32203 18.25042 15534 ft 325 kts 258°
2026-04-21 16:58 48.31690 18.21750 15123 ft 324 kts 258°
2026-04-21 16:58 48.31181 18.18499 14720 ft 322 kts 258°
2026-04-21 16:58 48.30665 18.15205 14303 ft 320 kts 257°
2026-04-21 16:58 48.30162 18.12005 13911 ft 319 kts 258°
2026-04-21 16:59 48.29650 18.08752 13495 ft 317 kts 257°
2026-04-21 16:59 48.28876 18.05697 13074 ft 317 kts 240°
2026-04-21 16:59 48.27504 18.03163 12896 ft 318 kts 223°
2026-04-21 16:59 48.25774 18.01047 12569 ft 320 kts 218°
2026-04-21 17:00 48.23998 17.99023 12153 ft 318 kts 217°
2026-04-21 17:00 48.22253 17.97049 11735 ft 317 kts 217°
2026-04-21 17:00 48.21071 17.95707 11449 ft 316 kts 217°
2026-04-21 17:00 48.18771 17.93080 10897 ft 314 kts 218°
2026-04-21 17:01 48.17040 17.91093 10484 ft 312 kts 218°
2026-04-21 17:01 48.15345 17.89145 10190 ft 305 kts 218°
2026-04-21 17:01 48.13680 17.87231 10064 ft 293 kts 218°
2026-04-21 17:01 48.12106 17.85421 9771 ft 289 kts 218°
2026-04-21 17:02 48.10513 17.83590 9394 ft 287 kts 218°
2026-04-21 17:02 48.08926 17.81766 9028 ft 286 kts 218°
2026-04-21 17:02 48.07369 17.79975 8667 ft 284 kts 218°
2026-04-21 17:02 48.05799 17.78173 8309 ft 283 kts 218°
2026-04-21 17:03 48.04248 17.76394 7959 ft 282 kts 218°
2026-04-21 17:03 48.02705 17.74627 7611 ft 281 kts 218°
2026-04-21 17:03 48.01162 17.72860 7264 ft 279 kts 218°
2026-04-21 17:03 47.99638 17.71116 6929 ft 278 kts 218°
2026-04-21 17:04 47.98107 17.69367 6593 ft 277 kts 218°
2026-04-21 17:04 47.96572 17.67615 6262 ft 275 kts 218°
2026-04-21 17:04 47.95073 17.65901 6043 ft 268 kts 218°
2026-04-21 17:04 47.93652 17.64280 5951 ft 254 kts 219°
2026-04-21 17:05 47.92477 17.62358 5790 ft 249 kts 249°
2026-04-21 17:05 47.92258 17.59933 5606 ft 234 kts 288°
2026-04-21 17:05 47.92995 17.57852 5300 ft 223 kts 317°
2026-04-21 17:05 47.94104 17.56300 5040 ft 219 kts 323°
2026-04-21 17:06 47.95249 17.54793 4751 ft 219 kts 322°
2026-04-21 17:06 47.96363 17.53253 4476 ft 220 kts 321°
2026-04-21 17:06 47.97459 17.51662 4194 ft 220 kts 320°
2026-04-21 17:06 47.98531 17.50048 3910 ft 220 kts 319°
2026-04-21 17:07 47.99591 17.48414 3715 ft 216 kts 319°
2026-04-21 17:07 48.00626 17.46799 3685 ft 215 kts 319°
2026-04-21 17:07 48.01662 17.45176 3587 ft 216 kts 318°
2026-04-21 17:07 48.02672 17.43589 3364 ft 213 kts 319°
2026-04-21 17:08 48.03692 17.41989 3075 ft 212 kts 319°
2026-04-21 17:08 48.04704 17.40404 2985 ft 210 kts 319°
2026-04-21 17:08 48.05696 17.38851 2967 ft 200 kts 319°
2026-04-21 17:08 48.06645 17.37368 2929 ft 198 kts 319°
2026-04-21 17:09 48.08518 17.34450 2548 ft 188 kts 319°
2026-04-21 17:09 48.09407 17.33065 2264 ft 183 kts 319°
2026-04-21 17:09 48.10263 17.31733 2032 ft 173 kts 319°
2026-04-21 17:10 48.11067 17.30479 1763 ft 158 kts 320°
2026-04-21 17:10 48.11791 17.29352 1534 ft 144 kts 320°
2026-04-21 17:10 48.12456 17.28319 1336 ft 133 kts 320°
2026-04-21 17:10 48.13100 17.27326 1182 ft 133 kts 320°
2026-04-21 17:11 48.13742 17.26332 1016 ft 132 kts 319°
2026-04-21 17:11 48.14375 17.25349 846 ft 132 kts 319°
2026-04-21 17:11 48.15017 17.24354 667 ft 132 kts 318°
2026-04-21 17:11 48.15649 17.23373 491 ft 130 kts 317°
2026-04-21 17:12 48.16246 17.22453 435 ft 102 kts 316°
2026-04-21 17:12 48.16584 17.21933 432 ft 57 kts 313°
2026-04-21 17:12 48.16850 17.21520 429 ft 49 kts 313°
2026-04-21 17:12 48.17028 17.21238 429 ft 27 kts 314°
2026-04-21 17:13 48.17119 17.21095 429 ft 11 kts 309°
2026-04-21 17:13 48.17119 17.21004 429 ft 7 kts 230°
2026-04-21 17:13 48.17078 17.20939 429 ft 9 kts 226°
2026-04-21 17:13 48.17030 17.20865 429 ft 10 kts 226°
2026-04-21 17:14 48.16979 17.20785 430 ft 10 kts 226°
2026-04-21 17:14 48.16931 17.20708 431 ft 9 kts 226°
2026-04-21 17:14 48.16884 17.20634 432 ft 10 kts 226°
2026-04-21 17:14 48.16831 17.20555 432 ft 11 kts 224°
2026-04-21 17:15 48.16774 17.20471 432 ft 12 kts 224°
2026-04-21 17:15 48.16721 17.20373 432 ft 11 kts 266°
2026-04-21 17:15 48.16771 17.20276 433 ft 11 kts 316°
2026-04-21 17:15 48.16827 17.20192 435 ft 9 kts 313°
2026-04-21 17:16 48.16852 17.20128 436 ft 6 kts 296°
2026-04-21 17:16 48.16878 17.20079 436 ft 4 kts 313°
2026-04-21 17:16 48.16888 17.20062 436 ft 0 kts 314°